Location: Chateh
(58.6667°N, 118.6000°W)
Time: 09:45:34
(UTC+00:00)

O/OREOS (USA 219) - Pass Details

Date: 11 December 2023
Orbit: 621 x 646 km, 72.0° (Epoch: 22 May)

Event Time Altitude Azimuth Distance (km) Brightness Sun altitude
Exits shadow 15:06:42 11° 322° (NW) 1,953 ? -9.9°
Maximum altitude 15:11:03 76° 239° (WSW) 655 ? -9.4°
Drops below altitude 10° 15:15:34 10° 153° (SSE) 2,014 ? -8.9°
Sets 15:17:50 0° 152° (SSE) 2,922 ? -8.6°
